Regional Weather Roundup
Issued by NWS

Home | Current Version | Previous Version | Text Only | Print | Product List | Glossary On
Versions: 1 2 3 4 5 6 7 8 9 10 11 12 13 14 15 16 17 18 19 20 21 22 23 24 25 26 27
000
ASUS44 KJAN 301420
RWRMS

MISSISSIPPI HOURLY WEATHER ROUNDUP
NATIONAL WEATHER SERVICE JACKSON MS
900 AM CDT FRI SEP 30 2016

NOTE: "FAIR: INDICATES FEW OR NO CLOUDS BELOW 12,000 FEET WITH NO
SIGNIFICANT WEATHER AND/OR OBSTRUCTIONS TO VISIBILITY.

MSZ001>002-007>008-010>013-018>021-025>028-034>036-301500-
NORTHWEST MISSISSIPPI

CITY           SKY/WX    TMP DP  RH WIND       PRES   REMARKS
BATESVILLE     FAIR      63  56  77 CALM      30.13R
CLARKSDALE     SUNNY     66  59  77 NW5       30.13S
CLEVELAND      FAIR      65  58  76 W3        30.14R
GREENWOOD      MOSUNNY   59  55  87 SW3       30.14R
GREENVILLE     SUNNY     66  56  70 W7        30.14S
OLIVE BRANCH   PTSUNNY  N/A N/A N/A N7        30.11R
OXFORD         FAIR      63  54  72 NW5       30.13S
TUNICA         MOSUNNY   64  55  72 NW3       30.13S
WINONA         FAIR      60  55  83 CALM      30.14R
$$

MSZ003>006-009-014>017-022>024-029>033-037>039-301500-
NORTHEAST MISSISSIPPI

CITY           SKY/WX    TMP DP  RH WIND       PRES   REMARKS
COLUMBUS AFB   SUNNY     62  55  76 N8        30.11S
CORINTH        PTSUNNY   61  54  77 N8        30.10S
STARKVILLE     FAIR      63  54  72 CALM      30.14R
TUPELO         SUNNY     63  53  70 N8        30.11S
$$

MSZ040-058-301500-
CENTRAL MISSISSIPPI

CITY           SKY/WX    TMP DP  RH WIND       PRES   REMARKS
JACKSON INTL   SUNNY     64  54  69 CALM      30.14R
JACKSON HAWKNS SUNNY     65  54  67 CALM      30.15R
MADISON        FAIR      64  52  63 CALM      30.14S
MERIDIAN KEY   SUNNY     66  54  65 N3        30.14R
MERIDIAN NAS   SUNNY     64  51  62 N5        30.14R
VICKSBURG VKS  SUNNY     63  57  82 CALM      30.15R
$$

MSZ059>079-301500-
SOUTH MISSISSIPPI

CITY           SKY/WX    TMP DP  RH WIND       PRES   REMARKS
BROOKHAVEN     FAIR     N/A N/A N/A CALM      30.17R
HATTIESBURG    SUNNY     64  54  69 CALM      30.15R
LAUREL         FAIR      60  55  83 CALM      30.14S
MCCOMB         SUNNY     65  52  62 CALM      30.15R
NATCHEZ        SUNNY     64  55  72 CALM      30.17R
PINE BELT      MOSUNNY   64  52  63 NE5       30.16R
$$

MSZ080>082-301500-
COASTAL MISSISSIPPI

CITY           SKY/WX    TMP DP  RH WIND       PRES   REMARKS
BILOXI         MOSUNNY   66  55  67 NE7       30.12R
PASCAGOULA     MOSUNNY   66  58  75 N5        30.13R
GULFPORT       MOSUNNY   67  54  63 NE6       30.12R
$$

LAZ007>009-015>016-023>026-301500-
NORTHEAST LOUISIANA

CITY           SKY/WX    TMP DP  RH WIND       PRES   REMARKS
BASTROP        FAIR      64  56  77 CALM      30.17S
TALLULAH/VBURG SUNNY     64  57  78 CALM      30.16R
$$




USA.gov is the U.S. government's official web portal to all federal, state and local government web resources and services.